FW2308 Weather Reports


Display with metric or nautical units.
time (UTC)temp
F
wind
direction
speed
MPH
gust
MPH
rain 1hr
in
rain 24hr
in
rain mn
in
humidity
%
barometer
mb
20260506013100 71 132 0.0 0.0 0.00 0.00 0.00 52 1013.2
20260506011607 71 132 0.0 1.0 0.00 0.00 0.00 52 1013.3
20260506010100 72 132 0.0 0.0 0.00 0.00 0.00 51 1013.1
20260506004600 72 132 0.0 1.0 0.00 0.00 0.00 50 1013.2
20260506003058 73 132 0.0 0.0 0.00 0.00 0.00 50 1013.1
20260506001557 73 132 0.0 0.0 0.00 0.00 0.00 48 1013.0
20260506000101 74 132 0.0 1.0 0.00 0.00 0.00 47 1013.0
20260505234604 76 132 0.0 0.0 0.00 0.00 0.00 45 1013.0
20260505233109 77 132 0.0 2.0 0.00 0.00 0.00 43 1012.9
20260505231557 77 154 0.0 3.0 0.00 0.00 0.00 41 1012.7
20260505230053 77 169 3.0 7.0 0.00 0.00 0.00 40 1012.9
20260505224553 78 157 0.0 8.0 0.00 0.00 0.00 39 1012.9
20260505223054 79 176 2.0 7.0 0.00 0.00 0.00 39 1013.0
20260505221551 79 216 0.0 6.0 0.00 0.00 0.00 38 1012.8
20260505220050 80 224 1.0 5.0 0.00 0.00 0.00 37 1012.8
20260505214554 80 157 2.0 9.0 0.00 0.00 0.00 37 1012.8
20260505213046 80 221 0.0 10.0 0.00 0.00 0.00 36 1012.8
20260505211546 80 169 1.0 6.0 0.00 0.00 0.00 35 1013.0
20260505210044 80 217 0.0 6.0 0.00 0.00 0.00 34 1013.1
20260505204546 81 108 0.0 6.0 0.00 0.00 0.00 32 1013.2
20260505203042 80 218 0.0 10.0 0.00 0.00 0.00 35 1013.1
20260505201540 81 152 1.0 7.0 0.00 0.00 0.00 33 1013.4
20260505200044 81 246 2.0 8.0 0.00 0.00 0.00 34 1013.6
20260505194539 81 141 1.0 8.0 0.00 0.00 0.00 32 1013.8
20260505193037 81 217 2.0 9.0 0.00 0.00 0.00 33 1014.0
20260505191537 82 253 0.0 4.0 0.00 0.00 0.00 33 1014.3
20260505190038 82 134 0.0 4.0 0.00 0.00 0.00 33 1014.5
20260505184533 81 219 1.0 11.0 0.00 0.00 0.00 33 1014.6
20260505183037 81 216 0.0 6.0 0.00 0.00 0.00 34 1014.7
20260505181531 81 310 1.0 8.0 0.00 0.00 0.00 37 1015.0
20260505180036 81 157 5.0 8.0 0.00 0.00 0.00 35 1015.2
20260505174539 82 307 1.0 4.0 0.00 0.00 0.00 33 1015.5
20260505173030 82 191 0.0 4.0 0.00 0.00 0.00 35 1015.7
20260505171529 81 157 1.0 5.0 0.00 0.00 0.00 34 1016.0
20260505170027 82 224 0.0 6.0 0.00 0.00 0.00 35 1015.8
20260505164526 81 143 5.0 15.0 0.00 0.00 0.00 33 1015.8
20260505163020 78 219 2.0 5.0 0.00 0.00 0.00 39 1015.9
20260505161516 72 25 1.0 7.0 0.00 0.00 0.00 61 1016.2
20260505153011 69 36 5.0 7.0 0.00 0.00 0.00 64 1016.7
20260505151508 68 51 3.0 7.0 0.00 0.00 0.00 69 1016.8
20260505130110 64 190 2.0 6.0 0.00 0.00 0.00 66 1016.2
20260505124559 64 188 2.0 5.0 0.00 0.00 0.00 66 1016.1
20260505123051 64 145 1.0 3.0 0.00 0.00 0.00 64 1016.2
20260505121550 62 159 1.0 3.0 0.00 0.00 0.00 66 1016.1
20260505120055 62 138 0.0 0.0 0.00 0.00 0.00 66 1015.8
20260505114541 60 218 0.0 0.0 0.00 0.00 0.00 71 1015.8
20260505113044 58 219 0.0 0.0 0.00 0.00 0.00 72 1015.7
20260505111540 54 203 0.0 0.0 0.00 0.00 0.00 78 1015.5
20260505101527 52 201 0.0 0.0 0.00 0.00 0.00 77 1015.0
20260505100030 52 213 0.0 0.0 0.00 0.00 0.00 77 1015.1
20260505094524 52 212 0.0 0.0 0.00 0.00 0.00 76 1015.0
20260505093023 52 212 0.0 0.0 0.00 0.00 0.00 75 1015.2
20260505091522 52 212 0.0 0.0 0.00 0.00 0.00 73 1015.2
20260505090020 53 166 0.0 0.0 0.00 0.00 0.00 72 1015.2
20260505084520 53 166 0.0 1.0 0.00 0.00 0.00 70 1014.9
20260505083017 54 202 0.0 0.0 0.00 0.00 0.00 68 1014.9
20260505081512 54 165 0.0 1.0 0.00 0.00 0.00 68 1014.8
20260505080012 54 134 1.0 3.0 0.00 0.00 0.00 70 1014.8
20260505074509 55 200 0.0 0.0 0.00 0.00 0.00 66 1014.8
20260505073009 56 224 0.0 0.0 0.00 0.00 0.00 65 1014.8
20260505071520 56 210 0.0 4.0 0.00 0.00 0.00 65 1014.9
20260505070005 56 173 0.0 4.0 0.00 0.00 0.00 67 1014.7
20260505064510 56 220 0.0 0.0 0.00 0.00 0.00 65 1014.6
20260505063001 56 221 0.0 0.0 0.00 0.00 0.00 64 1014.5
20260505061602 56 221 0.0 0.0 0.00 0.00 0.00 64 1014.6
20260505060100 56 221 0.0 0.0 0.00 0.00 0.00 64 1014.7
20260505054559 56 221 0.0 0.0 0.00 0.00 0.00 64 1014.7
20260505053102 57 221 0.0 0.0 0.00 0.00 0.00 63 1014.8
20260505051550 58 221 0.0 0.0 0.00 0.00 0.00 61 1015.0
20260505041543 60 220 0.0 0.0 0.00 0.00 0.00 59 1015.0
20260505040043 60 221 0.0 0.0 0.00 0.00 0.00 58 1015.1
20260505034540 60 221 0.0 0.0 0.00 0.00 0.00 57 1015.1
20260505033044 61 221 0.0 0.0 0.00 0.00 0.00 56 1015.2
20260505031539 61 221 0.0 0.0 0.00 0.00 0.00 55 1015.1
20260505030039 62 221 0.0 0.0 0.00 0.00 0.00 55 1015.1
20260505024537 63 221 0.0 0.0 0.00 0.00 0.00 54 1015.1
20260505023037 63 221 0.0 0.0 0.00 0.00 0.00 53 1015.1
20260505021537 64 221 0.0 0.0 0.00 0.00 0.00 52 1014.9
20260505020036 64 221 0.0 0.0 0.00 0.00 0.00 52 1014.9
20260505014536 65 195 0.0 0.0 0.00 0.00 0.00 53 1014.8